This is the latest recevied weather packets stored in our database for station/object KO4LFZ. If no packets are shown the sender has not sent any weather packets the latest 10 day(s).
| Time | Temp. | Humidity | Pressure | Rain* | Wind** | Luminosity | Snow |
|---|---|---|---|---|---|---|---|
| 1778080078 | 11.11° C | 89% | 1015 hPa | 0 mm | - | 185 W/m² | - |
| 1778079775 | 11.11° C | 89% | 1014.8 hPa | 0 mm | - | 202 W/m² | - |
| 1778079472 | 11.11° C | 89% | 1014.9 hPa | 0 mm | - | 150 W/m² | - |
| 1778079169 | 11.11° C | 88% | 1015 hPa | 0 mm | - | 179 W/m² | - |
| 1778078866 | 11.11° C | 88% | 1014.9 hPa | 0 mm | - | 246 W/m² | - |
| 1778078563 | 11.11° C | 90% | 1014.4 hPa | 0 mm | - | 261 W/m² | - |
| 1778078261 | 11.11° C | 89% | 1014.3 hPa | 0 mm | - | 184 W/m² | - |
| 1778077958 | 11.11° C | 89% | 1014.4 hPa | 0 mm | - | 284 W/m² | - |
| 1778077656 | 10.56° C | 88% | 1014 hPa | 0 mm | - | 242 W/m² | - |
| 1778077354 | 10.56° C | 89% | 1014.1 hPa | 0 mm | - | 239 W/m² | - |
| 1778077052 | 10.56° C | 89% | 1014.2 hPa | 0 mm | - | 167 W/m² | - |
| 1778076750 | 10.56° C | 89% | 1014.2 hPa | 0 mm | - | 147 W/m² | - |
| 1778076447 | 10.56° C | 91% | 1014.1 hPa | 0 mm | - | 284 W/m² | - |
| 1778076144 | 10° C | 89% | 1013.9 hPa | 0 mm | - | 216 W/m² | - |
| 1778075840 | 10.56° C | 90% | 1013.9 hPa | 0 mm | - | 161 W/m² | - |
| 1778075537 | 10° C | 91% | 1014.1 hPa | 0 mm | - | 177 W/m² | - |
| 1778075234 | 10° C | 91% | 1013.6 hPa | 0 mm | - | 211 W/m² | - |
| 1778074930 | 10° C | 92% | 1013.4 hPa | 0 mm | - | 243 W/m² | - |
| 1778074628 | 10° C | 92% | 1013.5 hPa | 0 mm | - | 177 W/m² | - |
| 1778074324 | 9.44° C | 92% | 1013.6 hPa | 0 mm | - | 154 W/m² | - |
| 1778074021 | 9.44° C | 93% | 1013.2 hPa | 0 mm | - | 137 W/m² | - |
| 1778073718 | 9.44° C | 93% | 1013.4 hPa | 0 mm | - | 103 W/m² | - |
| 1778073416 | 9.44° C | 93% | 1013.3 hPa | 0 mm | - | 112 W/m² | - |
| 1778073111 | 9.44° C | 92% | 1013 hPa | 0 mm | - | 101 W/m² | - |
| 1778072809 | 9.44° C | 93% | 1012.8 hPa | 0 mm | - | 163 W/m² | - |
* Rain latest hour (hover to see other rain measurements)
** Current wind speed in m/s (hover to see current wind gust speed)